{"data":{"norad_id":63695,"epoch":"2026-09-21T20:52:43.169376Z","epoch_age_seconds":89292,"freshness":"FRESH","line1":"1 63695U 25086J   26264.86994409 -.00000069  00000+0 -19486-3 0  9996","line2":"2 63695  86.4936 280.3269 0001715  78.8438 281.2889 13.24412254 67659","mean_motion":13.24412254,"eccentricity":0.0001715,"inclination_deg":86.4936,"raan_deg":280.3269,"arg_perigee_deg":78.8438,"mean_anomaly_deg":281.2889,"bstar":-0.00019486,"rev_number":6765,"period_min":108.72747482145,"perigee_km":1166.619476249,"apogee_km":1169.207771613,"semimajor_km":7546.050623931,"source":"CELESTRAK","updated_at":"2026-09-22T09:00:29.284232Z"}}